Location: Grandview
(34.8900°N, 117.1058°W)
Time: 01:15:56
(UTC-08:00)

Vanguard 1 - Visible Passes

Search period start: 24 January 2018 00:00
Search period end: 03 February 2018 00:00
Orbit: 649 x 3834 km, 34.2° (Epoch: 23 January)

Date Brightness Start Highest point End Pass type
(mag) Time Alt. Az. Time Alt. Az. Time Alt. Az.
24 Jan 13.6 00:52:33 15° E 00:52:33 15° E 00:54:32 10° E visible
24 Jan 12.1 03:05:16 62° SSE 03:05:16 62° SSE 03:22:24 10° ESE visible
24 Jan 12.8 05:18:00 21° W 05:27:25 37° SSW 05:46:31 10° SSE visible
25 Jan 13.4 01:12:32 19° E 01:12:32 19° E 01:16:22 10° E visible
25 Jan 12.1 03:25:16 58° S 03:25:16 58° S 03:43:37 10° SE visible
25 Jan 13.0 05:38:00 14° W 05:48:47 29° SW 06:05:59 10° SSE visible
26 Jan 13.2 01:32:33 24° ESE 01:32:33 24° ESE 01:38:07 10° ESE visible
26 Jan 12.2 03:45:16 49° SSW 03:45:45 49° SSW 04:04:28 10° SE visible
26 Jan 13.2 05:58:59 10° W 06:10:11 22° SW 06:24:37 10° S visible
27 Jan 13.0 01:52:35 28° ESE 01:52:35 28° ESE 01:59:43 10° ESE visible
27 Jan 12.3 04:05:19 39° SW 04:07:06 40° SSW 04:24:55 10° SSE visible
27 Jan 13.5 06:23:09 10° WSW 06:31:38 15° SW 06:41:42 10° S visible
28 Jan 12.9 02:12:38 32° SE 02:12:38 32° SE 02:21:07 10° SE visible
28 Jan 12.6 04:25:22 30° SW 04:28:29 32° SSW 04:44:52 10° SSE visible
28 Jan 11.4 19:21:08 10° S 19:22:09 14° S 19:22:09 14° S visible
29 Jan 12.8 02:32:41 34° SSE 02:32:41 34° SSE 02:42:14 10° SE visible
29 Jan 12.8 04:45:26 21° SW 04:49:53 25° SSW 05:04:09 10° SSE visible
29 Jan 11.4 19:41:06 10° SSW 19:42:12 16° SSW 19:42:12 16° SSW visible
30 Jan 12.7 02:52:46 33° SSE 02:52:46 33° SSE 03:02:59 10° SE visible
30 Jan 13.1 05:05:30 14° WSW 05:11:22 18° SW 05:22:24 10° S visible
30 Jan 11.7 20:01:30 10° SW 20:02:16 15° SW 20:02:16 15° SW visible
31 Jan 12.8 03:12:51 30° S 03:12:51 30° S 03:23:19 10° SSE visible
31 Jan 13.4 05:28:26 10° SW 05:32:55 12° SW 05:37:57 10° SSW visible
31 Jan 11.3 18:05:11 10° S 18:07:00 12° SSE 18:08:45 10° SE visible
31 Jan 12.1 20:22:09 10° WSW 20:22:19 11° WSW 20:22:19 11° WSW visible
01 Feb 13.7 01:20:11 10° SE 01:20:11 10° SE 01:20:21 10° SE visible
01 Feb 12.9 03:32:55 25° SSW 03:32:55 25° SSW 03:43:04 10° SSE visible
01 Feb 10.9 18:24:24 10° SSW 18:27:50 19° SSE 18:29:37 16° ESE visible
02 Feb 13.6 01:40:16 12° SE 01:40:16 12° SE 01:41:19 10° SE visible
02 Feb 13.1 03:53:00 19° SSW 03:53:00 19° SSW 04:02:00 10° S visible
02 Feb 10.2 18:44:33 10° SW 18:48:40 29° SSE 18:49:38 27° SE visible
